Flag for India Weather past 2 weeks in Kolkata, West Bengal, India

Now
93 °F

Scattered clouds.


Feels Like: 113 °F
Forecast: 82 / 95 °F
Wind: 15 mph from South

Location: Calcutta / Dum Dum

Current Time: May 27, 2015 at 10:18:44 AM

Latest Report: May 27, 2015 at 9:50 AM


Visibility: 2 mi

Pressure: 29.68 "Hg

Humidity: 67%

Dew point: 81 °F

Location of KolkataLocation

Historic Weather in Kolkata — Graph

°F

Kolkata temperature yesterday

Maximum temperature yesterday: 100 °F (at 12:50 PM)
Minimum temperature yesterday: 84 °F (at 12:50 AM)
Average temperature yesterday: 91 °F

Past Weeks' High & Low Weather Summary

 TemperatureHumidityPressure
High100 °F (May 14, 12:50 PM)94% (May 16, 10:50 PM)29.80 "Hg (May 16, 10:50 PM)
Low77 °F (May 16, 10:50 PM)40% (May 14, 12:50 PM)29.45 "Hg (May 22, 3:50 PM)
Average89 °F74%29.62 "Hg
* Reported May 12 8:50 AM — May 27 8:50 AM, Kolkata, Weather by CustomWeather, © 2015

Note: Actual official high and low records may vary slightly from our data, if they occured in-between our weather recording intervals... More about our weather records

Advertising

Kolkata weather history for previous 24 hours

 ConditionsComfort  
Time TempWeatherWind HumidityBarometerVisibility
8:50 AM
Wed, May 27
91 °FScattered clouds.7 mph75%29.71 "Hg2 mi
8:20 AM91 °FScattered clouds.No wind75%29.71 "Hg2 mi
7:50 AM90 °FScattered clouds.3 mph75%29.71 "Hg2 mi
7:20 AM88 °FScattered clouds.No wind79%29.71 "Hg2 mi
6:50 AM88 °FScattered clouds.3 mph79%29.68 "Hg2 mi
6:20 AM86 °FScattered clouds.No wind84%29.65 "Hg2 mi
5:50 AM86 °FScattered clouds.No wind84%29.65 "Hg2 mi
5:20 AM84 °FPassing clouds.No wind89%29.62 "Hg2 mi
4:50 AM84 °FPassing clouds.No wind89%29.62 "Hg2 mi
4:20 AM84 °FPassing clouds.No wind89%29.62 "Hg2 mi
3:50 AM84 °FPassing clouds.No wind89%29.59 "Hg2 mi
2:50 AM86 °FPassing clouds.No wind89%29.56 "Hg2 mi
2:20 AM86 °FPassing clouds.No wind89%29.59 "Hg2 mi
1:50 AM86 °FPassing clouds.No wind89%29.59 "Hg2 mi
12:50 AM86 °FPassing clouds.6 mph89%29.56 "Hg2 mi
12:20 AM86 °FPassing clouds.6 mph89%29.56 "Hg2 mi
11:50 PM
Tue, May 26
86 °FPassing clouds.6 mph89%29.56 "Hg2 mi
11:20 PM86 °FPassing clouds.7 mph89%29.59 "Hg2 mi
10:50 PM86 °FPassing clouds.6 mph89%29.59 "Hg2 mi
10:20 PM86 °FPassing clouds.5 mph89%29.59 "Hg2 mi
9:50 PM88 °FPassing clouds.7 mph84%29.62 "Hg2 mi
9:20 PM88 °FPassing clouds.9 mph84%29.62 "Hg2 mi
8:50 PM88 °FPassing clouds.8 mph84%29.62 "Hg2 mi
8:20 PM88 °FPassing clouds.7 mph84%29.65 "Hg2 mi
7:50 PM88 °FLight rain. Passing clouds.12 mph84%29.65 "Hg2 mi
7:20 PM91 °FHaze.12 mph75%29.65 "Hg2 mi
6:50 PM91 °FHaze.12 mph75%29.62 "Hg2 mi
6:20 PM91 °FHaze.12 mph71%29.59 "Hg2 mi
5:50 PM93 °FHaze.9 mph67%29.56 "Hg2 mi
5:20 PM93 °FHaze.9 mph67%29.56 "Hg2 mi
4:50 PM95 °FScattered clouds.14 mph63%29.56 "Hg2 mi
4:20 PM97 °FScattered clouds.14 mph56%29.56 "Hg2 mi
3:50 PM97 °FScattered clouds.14 mph56%29.56 "Hg2 mi
3:20 PM99 °FScattered clouds.12 mph53%29.56 "Hg2 mi
2:50 PM99 °FScattered clouds.12 mph53%29.59 "Hg2 mi
2:20 PM99 °FScattered clouds.12 mph53%29.59 "Hg2 mi
1:50 PM99 °FScattered clouds.14 mph53%29.59 "Hg2 mi
1:20 PM100 °FScattered clouds.14 mph53%29.59 "Hg2 mi
12:50 PM100 °FScattered clouds.15 mph53%29.59 "Hg2 mi
12:20 PM99 °FScattered clouds.16 mph57%29.62 "Hg2 mi
11:50 AM99 °FScattered clouds.17 mph57%29.62 "Hg2 mi
11:20 AM99 °FScattered clouds.14 mph57%29.65 "Hg2 mi
10:50 AM97 °FScattered clouds.13 mph60%29.65 "Hg2 mi
10:20 AM95 °FScattered clouds.13 mph67%29.65 "Hg2 mi
Weather by CustomWeather, © 2015

See weather overviewHow to use our weather pages